Content
SEND FEEDBACK

Daily
Averages
Monthly
Summary
United States of America

ANN ARBOR, MICHIGAN


Home > North America > United States > Michigan
Elevation: 231 meters     Latitude: 42 17N     Longitude: 083 43W

WEATHER
 
SELECT A DAY
Number of Records: 203,372;   Date Range: 1/1/95 - 7/28/14
 
SHARE

PRINT THIS DATA

[ ← Previous Day ]
WEATHER ALMANAC - 10 JANUARY, 2013
[ Next Day → ]
[ °F ]   °C
Weather ElementAverageHighLow
Temperature-0.4 °C3.9 °C (12:53 pm)-7.2 °C (4:53 am)
Dewpoint-4.1 °C0 °C (11:51 pm)-8.9 °C (4:53 am)
Humidity78 %89 % (2:53 am)60 % (12:53 pm)
Barometer1031.2 hPa1035.9 hPa (9:53 am)1021.7 hPa (11:51 pm)
Wind Speed7.9 km/h18.5 km/h (2:53 pm)
Weather ElementAverage
Visibility13.7 km
Wind DirectionENE (84.2 °)

Weather ElementTotal
Precipitation1.27 mm
Heating Degree Days20 (Base 18.3)
Averaged from 24 records on 10 January, 2013
WEATHER CONDITIONS BREAKOUT
WIND DIRECTION BREAKOUT
WEATHER BY HOUR - 10 JANUARY, 2013
[ °F ]   °C
Local TimeTemperatureDewpointHumidityBarometerVisibilityWind DirectionWind SpeedGust SpeedPrecipitationEventsConditions
1:53 AM-4.4 °C-6.1 °C88 %1033.9 hPa16.1 kmWest (260°)5.6 km/hClear
2:53 AM-5.6 °C-7.2 °C89 %1034.5 hPa12.9 kmCalmClear
3:53 AM-6.7 °C-8.3 °C89 %1034.5 hPa9.7 kmCalmClear
4:53 AM-7.2 °C-8.9 °C88 %1033.9 hPa14.5 kmCalmClear
5:53 AM-7.2 °C-8.9 °C88 %1034.2 hPa8 kmCalmClear
6:53 AM-6.7 °C-8.9 °C85 %1034.9 hPa16.1 kmCalmClear
7:53 AM-6.7 °C-8.9 °C85 %1035.2 hPa16.1 kmCalmClear
8:53 AM-5.6 °C-7.2 °C89 %1035.6 hPa16.1 kmCalmClear
9:53 AM-0.6 °C-2.8 °C85 %1035.9 hPa12.9 kmCalmClear
10:53 AM2.8 °C-2.8 °C67 %1035.2 hPa16.1 kmEast (90°)11.1 km/hClear
11:53 AM3.3 °C-3.3 °C62 %1034.2 hPa16.1 kmSE (130°)9.3 km/hClear
12:53 PM3.9 °C-3.3 °C60 %1033.2 hPa16.1 kmSE (140°)13 km/hClear
1:53 PM3.9 °C-3.3 °C60 %1032.2 hPa16.1 kmSE (130°)16.7 km/hClear
2:53 PM3.3 °C-2.8 °C65 %1031.5 hPa16.1 kmESE (120°)18.5 km/hClear
3:53 PM3.3 °C-2.2 °C68 %1031.2 hPa16.1 kmSE (130°)9.3 km/hClear
4:53 PM2.8 °C-2.2 °C70 %1030.5 hPa16.1 kmESE (120°)9.3 km/hClear
5:53 PM2.2 °C-2.8 °C70 %1029.5 hPa16.1 kmESE (110°)14.8 km/hClear
6:53 PM2.2 °C-2.2 °C73 %1029.1 hPa16.1 kmESE (110°)9.3 km/hClear
7:53 PM2.2 °C-2.2 °C73 %1028.1 hPa16.1 kmESE (120°)11.1 km/hClear
8:53 PM2.2 °C-1.7 °C76 %1027.1 hPa9.7 kmESE (120°)13 km/h0.25 mmRainLight Rain
9:53 PM1.7 °C-0.6 °C85 %1025.4 hPa12.9 kmEast (90°)11.1 km/h1.02 mmOvercast
10:53 PM2.2 °C-0.6 °C82 %1023.7 hPa12.9 kmESE (110°)13 km/hOvercast
11:51 PM2 °C0 °C87 %1021.7 hPa4 kmESE (120°)11.1 km/h0 mmOvercast
11:53 PM1.7 °C0 °C89 %1022.4 hPa4 kmESE (120°)13 km/h0 mmOvercast
Hourly data recorded from KARB, located 0 kilometers away from Ann Arbor, Michigan







STORIES FROM OUR PARTNERS